Flag for Norway Weather past 2 weeks in Osøyro, Norway

Now
43 °F

Scattered clouds.


Feels Like: 41 °F
Forecast: 42 / 51 °F
Wind: 5 mph from South

Location: Bergen / Flesland

Current Time: May 29, 2015 at 11:02:52 PM

Latest Report: May 29, 2015 at 10:00 PM


Visibility: 28 mi

Pressure: 29.59 "Hg

Humidity: 86%

Dew point: 39 °F

Location of OsøyroLocation

Historic Weather in Osøyro — Graph

°F

Osøyro temperature yesterday

Maximum temperature yesterday: 50 °F (at 2:00 PM)
Minimum temperature yesterday: 45 °F (at 8:00 AM)
Average temperature yesterday: 46 °F

Past Weeks' High & Low Weather Summary

 TemperatureHumidityPressure
High55 °F (May 18, 7:00 PM)97% (May 22, 12:00 AM)30.16 "Hg (May 22, 12:00 AM)
Low36 °F (May 15, 4:00 AM)34% (May 19, 3:00 AM)29.23 "Hg (May 19, 8:00 AM)
Average46 °F79%29.81 "Hg
* Reported May 14 9:00 PM — May 29 9:00 PM, Osøyro, Weather by CustomWeather, © 2015

Note: Actual official high and low records may vary slightly from our data, if they occured in-between our weather recording intervals... More about our weather records

Advertising

Osøyro weather history for previous 24 hours

 ConditionsComfort  
Time TempWeatherWind HumidityBarometerVisibility
9:00 PM
Fri, May 29
44 °FRain showers. Partly sunny.3 mph87%29.57 "Hg17 mi
8:00 PM44 °FLots of rain. Overcast.6 mph89%29.57 "Hg8 mi
7:00 PM46 °FOvercast.6 mph78%29.57 "Hg25 mi
6:00 PM49 °FPartly sunny.6 mph73%29.55 "Hg16 mi
5:00 PM48 °FScattered clouds.6 mph74%29.56 "Hg15 mi
4:00 PM48 °FPartly sunny.7 mph78%29.57 "Hg19 mi
3:00 PM46 °FRain showers. Overcast.6 mph86%29.55 "Hg9 mi
2:00 PM45 °FRain showers. Overcast.6 mph83%29.55 "Hg9 mi
1:00 PM44 °FRain. Overcast.8 mph86%29.55 "Hg3 mi
12:00 PM50 °FPassing clouds.8 mph72%29.54 "Hg19 mi
11:00 AM49 °FPartly sunny.8 mph75%29.53 "Hg22 mi
10:00 AM45 °FSprinkles. Low clouds.6 mph87%29.50 "Hg17 mi
9:00 AM45 °FLots of rain. Overcast.5 mph89%29.50 "Hg19 mi
8:00 AM45 °FPartly sunny.6 mph81%29.50 "Hg22 mi
7:00 AM43 °FRain showers. Partly sunny.5 mph92%29.50 "Hg10 mi
6:00 AM42 °FOvercast.5 mph91%29.50 "Hg25 mi
5:00 AM42 °FLight rain. Overcast.3 mph84%29.50 "Hg6 mi
4:00 AM41 °FPassing clouds.2 mph89%29.50 "Hg28 mi
3:00 AM42 °FPassing clouds.2 mph88%29.53 "Hg19 mi
2:00 AM44 °FSnow flurries. Passing clouds.3 mph81%29.53 "Hg16 mi
1:00 AM44 °FSprinkles. Passing clouds.3 mph86%29.53 "Hg16 mi
Weather by CustomWeather, © 2015

See weather overviewHow to use our weather pages